Location: Unspecified
(58.7730°N, 5.8460°E)
Time: 22:33:29
(UTC+01:00)

Resurs 1-4 Rocket - Visible Passes

Search period start: 20 December 2014 00:00
Search period end: 30 December 2014 00:00
Orbit: 799 x 815 km, 98.4° (Epoch: 19 December)

Date Brightness Start Highest point End Pass type
(mag) Time Alt. Az. Time Alt. Az. Time Alt. Az.
20 Dec 4.3 03:58:46 10° NNE 04:00:30 19° NE 04:00:30 19° NE visible
20 Dec 3.1 05:38:38 10° NNE 05:41:35 32° N 05:41:35 32° N visible
20 Dec 3.6 07:19:24 10° N 07:22:40 17° NW 07:22:40 17° NW visible
20 Dec 4.8 17:11:19 10° WSW 17:14:31 16° W 17:17:43 10° NW visible
21 Dec 4.7 03:34:34 10° NNE 03:35:43 15° NE 03:35:43 15° NE visible
21 Dec 3.3 05:14:06 10° NNE 05:16:48 31° N 05:16:48 31° N visible
21 Dec 3.4 06:54:38 10° N 06:57:54 21° NW 06:57:54 21° NW visible
21 Dec 4.5 16:45:34 10° SW 16:49:42 23° W 16:53:50 10° NW visible
22 Dec 5.0 03:10:35 10° NE 03:10:57 11° NE 03:10:57 11° NE visible
22 Dec 3.6 04:49:37 10° NNE 04:52:02 28° NNE 04:52:02 28° NNE visible
22 Dec 3.2 06:29:57 10° N 06:33:07 26° NNW 06:33:07 26° NNW visible
22 Dec 4.0 08:12:00 10° NNW 08:12:45 10° NNW 08:13:31 10° NW visible
23 Dec 4.0 04:25:11 10° NNE 04:27:16 24° NNE 04:27:16 24° NNE visible
23 Dec 3.2 06:05:19 10° N 06:08:21 29° NNW 06:08:21 29° NNW visible
23 Dec 3.8 07:46:28 10° N 07:48:46 13° NW 07:49:26 13° NW visible
23 Dec 5.2 17:40:53 10° W 17:41:35 10° WNW 17:42:17 10° WNW visible
24 Dec 4.4 04:00:51 10° NNE 04:02:30 19° NE 04:02:30 19° NE visible
24 Dec 3.2 05:40:44 10° NNE 05:43:35 31° N 05:43:35 31° N visible
24 Dec 3.6 07:21:32 10° N 07:24:40 17° NW 07:24:40 17° NW visible
24 Dec 4.8 17:13:36 10° WSW 17:16:39 15° W 17:19:43 10° NW visible
25 Dec 4.7 03:36:38 10° NNE 03:37:44 15° NE 03:37:44 15° NE visible
25 Dec 3.4 05:16:12 10° NNE 05:18:49 30° N 05:18:49 30° N visible
25 Dec 3.4 06:56:46 10° N 06:59:55 21° NW 06:59:55 21° NW visible
25 Dec 4.6 16:47:47 10° SW 16:51:50 22° W 16:55:54 10° NW visible
26 Dec 5.0 03:12:36 10° NE 03:12:59 11° NE 03:12:59 11° NE visible
26 Dec 3.7 04:51:42 10° NNE 04:54:04 27° NNE 04:54:04 27° NNE visible
26 Dec 3.3 06:32:04 10° N 06:35:09 25° NNW 06:35:09 25° NNW visible
26 Dec 4.0 08:14:27 10° NNW 08:14:48 10° NNW 08:15:10 10° NNW visible
27 Dec 4.0 04:27:17 10° NNE 04:29:19 23° NNE 04:29:19 23° NNE visible
27 Dec 3.2 06:07:26 10° N 06:10:24 28° NNW 06:10:24 28° NNW visible
27 Dec 3.8 07:48:37 10° N 07:50:49 13° NW 07:51:30 12° NW visible
28 Dec 4.4 04:02:55 10° NNE 04:04:34 19° NE 04:04:34 19° NE visible
28 Dec 3.2 05:42:50 10° N 05:45:39 30° N 05:45:39 30° N visible
28 Dec 3.6 07:23:40 10° N 07:26:45 16° NW 07:26:45 16° NW visible
28 Dec 4.8 17:15:54 10° WSW 17:18:48 15° W 17:21:43 10° NW visible
29 Dec 4.7 03:38:41 10° NNE 03:39:49 15° NE 03:39:49 15° NE visible
29 Dec 3.4 05:18:18 10° NNE 05:20:55 30° N 05:20:55 30° N visible
29 Dec 3.4 06:58:53 10° N 07:02:00 20° NW 07:02:00 20° NW visible
29 Dec 4.6 16:50:00 10° SW 16:53:57 21° W 16:57:56 10° NW visible
